www.pogodaiklimat.ru

Погода и климат >> Архив погоды >> Россия >> Ростовская область >> Таганрог


АРХИВ ПОГОДЫ в Таганроге

Время (UTC), дата Ветер
(напр.,м/с)
 
Видим.   Явления Облачность Т
(С)
Тd
(С)
f
(%)
Тe
(С)
Тes
(С)
Комфортность P
(гПа)
Po
(гПа)
Тmin
(С)
Tmax
(С)
R
(мм)
R24
(мм)
S
(см)
09 19.06 ЮВ 4 20 км 1/1 1000 м
[Cu hum]
+31.1 +12.7 32 +32 +43 жарко 1012.4 1008.8
12 19.06 ЮЗ 2 20 км 1/1 1000 м
[Cu med, cong]
+31.5 +14.3 35 +33 +45 жарко 1011.2 1007.6
15 19.06 С 3 20 км 5/3 1000 м
[Cu med, cong Ac cast Ci fib]
+30.5 +12.9 34 +32 +33 жарко 1011.0 1007.4 +32.3
18 19.06 СВ 2 20 км 6/3 1000 м
[Sc Ac trans Ci fib]
+26.3 +14.2 47 +29 +29 жарко 1011.3 1007.7
21 19.06 С 2 20 км 8/4 1000 м
[Sc Ac trans]
+25.0 +15.2 55 +28 +28 жарко 1011.6 1007.9
00 20.06 С 3 20 км 1/0
[Ac trans]
+23.3 +15.1 60 +27 +27 душно 1011.5 1007.8
03 20.06 С 3 20 км 1/0
[Ac trans]
+22.6 +14.9 62 +26 +27 жарко 1012.5 1008.8 +22.3
06 20.06 СВ 2 20 км 1/0
[Ac cast]
+27.7 +15.2 46 +30 +40 жарко 1012.6 1008.9
09 20.06 В 4 20 км 1/1 1000 м
[Cu hum]
+30.9 +11.1 30 +31 +42 жарко 1011.8 1008.2
12 20.06 СВ 3 20 км 3/3 1000 м
[Cu med, cong]
+32.9 +8.7 22 +32 +39 жарко 1011.0 1007.4
15 20.06 СВ 2 20 км 1/1 1000 м
[Cu hum]
+32.3 +7.4 21 +31 +33 жарко 1010.4 1006.8 +33.4
18 20.06 С 3 20 км 1/1 1000 м
[Sc diur, vesp]
+28.0 +9.4 31 +28 +28 жарко 1011.1 1007.4
21 20.06 С 3 20 км 5/5 1000 м
[Sc]
+25.2 +10.0 38 +26 +26 жарко 1011.7 1008.0
00 21.06 С 4 20 км 6/6 1000 м
[Sc]
+23.9 +9.3 39 +25 +25 комфорт 1012.6 1008.9
03 21.06 С 4 20 км 5/5 1000 м
[Sc]
+23.6 +10.4 43 +25 +25 комфорт 1013.0 1009.3 +23.1
06 21.06 СВ 3 20 км 1/1 1000 м
[Cu hum]
+28.8 +11.2 34 +29 +37 жарко 1013.6 1010.0
09 21.06 В 4
{10}
20 км 1/1 1000 м
[Cu med, cong]
+32.8 +9.4 24 +32 +43 жарко 1013.4 1009.8
12 21.06 СВ 2 20 км 3/3 1000 м
[Cu med, cong]
+34.9 +7.3 18 +33 +42 жарко 1012.9 1009.3
15 21.06 СВ 2 20 км 8/6 1000 м
[Sc Ac trans]
+32.6 +9.9 25 +32 +33 жарко 1012.7 1009.1 +35.1
18 21.06 С 1 20 км 8/1 1000 м
[Sc Ac trans Ci fib]
+27.9 +13.1 40 +30 +30 жарко 1013.3 1009.7
21 21.06 С 3 20 км ясно +26.4 +11.1 38 +27 +27 жарко 1013.6 1009.9
00 22.06 С 2 20 км 3/0
[Ci fib]
+24.4 +10.2 41 +25 +25 комфорт 1014.2 1010.5
03 22.06 С 3 20 км 8/4 1000 м
[Sc Ac trans Ci]
+24.3 +10.0 40 +25 +26 комфорт 1014.6 1010.9 +23.2
06 22.06 СВ 2 20 км 9/5 1000 м
[Sc Ac trans Ci]
+27.1 +10.6 36 +28 +31 жарко 1015.1 1011.5
09 22.06 СВ 3 20 км 8/1 1500 м
[Cu hum Ac cast Ci]
+32.5 +9.3 24 +32 +40 жарко 1014.7 1011.1
12 22.06 СВ 2 20 км 10/0
[Ac cast]
+32.4 +6.3 20 +31 +35 жарко 1013.9 1010.3
15 22.06 С 2
{11}
20 км 10/0
[Ac cuf]
+31.0 +8.9 25 +30 +31 жарко 1013.2 1009.6 +34.1
18 22.06 С 3
{10}
20 км 10/0
[Ac cast]
+30.2 +6.5 23 +29 +29 жарко 1012.8 1009.2
21 22.06 СВ 4
{10}
20 км 9/0
[Ac trans]
+29.1 +6.7 24 +28 +28 жарко 1012.3 1008.7
00 23.06 СВ 3
{11}
20 км 10/0
[Ac und]
+27.3 +8.8 31 +27 +27 жарко 1012.2 1008.5
03 23.06 СВ 3 20 км 10/0
[Ac cast]
+26.7 +8.2 31 +27 +27 жарко 1013.0 1009.3 +26.4
06 23.06 ЮВ 1 20 км 9/0
[Ac As]
+27.5 +13.3 42 +29 +34 жарко 1014.3 1010.6 +25.7
09 23.06 В 1 20 км 8/8 1000 м
[Sc Ac trans]
+30.0 +11.9 33 +31 +35 жарко 1013.9 1010.3
12 23.06 С 1 20 км 8/6 1000 м
[Sc Ac trans]
+34.6 +7.1 18 +33 +37 жарко 1012.4 1008.8
15 23.06 СВ 2 20 км 9/8 1000 м
[Sc Ac trans]
+32.8 +10.5 25 +32 +33 жарко 1010.9 1007.3 +36.8
18 23.06 ЮЗ 4-11
{11}
20 км 9/9 1000 м
[Sc]
+27.5 +15.0 46 +30 +30 жарко 1011.7 1008.1
21 23.06 СЗ 3
{11}
20 км слаб. ливневой дождь 10/10 300 м
[Cb cap]
+28.3 +8.7 29 +28 +28 жарко 1011.3 1007.7
00 24.06 З 2 20 км {ливн. осадки} 10/9
[Cb cap]
+25.0 +14.8 53 +28 +28 жарко 1011.7 1008.0
03 24.06 ЮЗ 1 20 км 10/10 600 м
[Cb cap]
+24.7 +16.7 61 +28 +28 душно 1012.8 1009.1 +24.7 0.0
06 24.06 ЮВ 2 20 км {ливн. осадки} 9/9 600 м
[Cb cap]
+25.2 +19.0 69 +30 +31 душно 1013.9 1010.2
09 24.06 В 2 20 км 9/9
[Cb cap]
+26.0 +18.1 62 +31 +32 очень
душно
1014.1 1010.4
12 24.06 СВ 2 20 км 9/9 600 м
[Cb cap]
+29.1 +15.7 44 +32 +33 душно 1013.9 1010.2
15 24.06 СВ 1 20 км 9/9 600 м
[Sc]
+29.6 +13.6 38 +31 +32 жарко 1013.8 1010.2 +31.2 0.0
18 24.06 С 2 20 км 4/4 600 м
[Sc diur, vesp]
+27.4 +15.9 49 +30 +30 жарко 1014.4 1010.7
21 24.06 С 1 20 км 8/8 1000 м
[Sc]
+24.8 +18.1 66 +29 +29 душно 1015.2 1011.5
00 25.06 С 2 20 км 9/9 600 м
[Sc]
+24.0 +16.2 62 +27 +27 жарко 1015.0 1011.3
03 25.06 СЗ 2 20 км 8/8 600 м
[Sc]
+24.6 +12.6 47 +26 +27 жарко 1014.7 1011.0 +23.5
06 25.06 СВ 1 20 км 8/4 600 м
[Sc Ac trans Ci]
+27.4 +15.3 48 +30 +35 жарко 1015.6 1011.9
09 25.06 С 5-10
{12}
20 км 9/8 600 м
[Sc Ac trans]
+28.2 +13.5 40 +30 +31 жарко 1016.4 1012.7
12 25.06 С 5-11
{11}
20 км 8/8 1000 м
[Sc Ac trans]
+28.8 +13.5 39 +30 +32 жарко 1017.1 1013.4
15 25.06 С 3
{11}
20 км 6/1 1000 м
[Sc Ac trans Ci]
+27.9 +11.2 35 +29 +30 жарко 1018.0 1014.3 +30.6
18 25.06 С 2 20 км 8/3 1000 м
[Sc Ac trans Ci fib]
+24.7 +9.5 38 +25 +25 комфорт 1018.9 1015.2
21 25.06 С 4 20 км 5/0
[Ac lent Ci]
+23.5 +9.8 42 +25 +25 комфорт 1019.4 1015.7
00 26.06 С 5
{10}
20 км 5/0
[Ac trans Ci]
+21.5 +2.9 29 +21 +21 комфорт 1019.9 1016.2
03 26.06 С 4
{10}
20 км 1/0
[Ci fib]
+20.6 +3.5 32 +21 +22 комфорт 1020.6 1016.8 +19.8
06 26.06 С 3 20 км ясно +25.8 +5.1 26 +25 +34 комфорт 1020.7 1017.0

 

Местоположение метеостанции Таганрог (Ростовская область, Россия): широта 47.20 долгота 38.90 высота над уровнем моря 32 м.

В архиве по умолчанию представлена погода в Таганроге за последнюю неделю. Архивные данные за месяц целиком и за предыдущие месяцы, начиная с января 2011 года, Вы можете получить, выбрав интересующий диапазон дат из раскрывающегося списка и нажав кнопку "Ввод!".


*Определитесь, кто Вы:
робот инопланетянин человек

Внимание! Время в таблицах - всемирное. Для получения местного времени необходимо прибавить поправку, которая равна 3 ч.

Смотрите также архив погоды в соседних городах и на ближайших метеорологических станциях:

Погода в Маргаритово (Ростовская область, Россия) (30 км)
Погода в Матвеевом Кургане (Ростовская область, Россия) (41 км)
Погода в Ейске (Краснодарский край, Россия) (65 км)
Погода в Ростове-на-Дону (Ростовская область, Россия) (70 км)
Погода в Староминская (Краснодарский край, Россия) (75 км)
Погода в Аэропорту Платов (Ростовская область, Россия) (83 км)
Погода в Кущевской (Краснодарский край, Россия) (92 км)
Погода в Должанке (Краснодарский край, Россия) (106 км)
Погода в Мариуполе (Донецкая область, Украина) (108 км)
Погода в Зерноград (Ростовская область, Россия) (114 км)

Пояснения к столбцам:

Ветер - указаны скорость ветра в м/с - средняя за 10 мин, порывы в срок и между сроками (в фигурных скобках) и направление, откуда дует ветер: С - северный, СВ - северо-восточный, В - восточный, ЮВ - юго-восточный, Ю - южный, ЮЗ - юго-западный, З - западный, СЗ - северо-западный.
Видимость - горизонтальная дальность видимости в метрах или километрах. При видимости от 1 до 10 км при отсутствии осадков обычно наблюдается дымка, при ухудшении видимости до 1 км и менее - туман. В сухую погоду видимость может ухудшаться дымом, пылью или мглою.
Явления - указаны атмосферные явления, наблюдавшиеся в срок или в последний час перед сроком; фигурными скобками обозначены явления, наблюдавшиеся между сроками (за 1-3 часа до срока); квадратными скобками обозначены град или гололедные отложения с указанием их диаметра в мм.
Облачность - указаны через наклонную черту общая и нижняя облачность в баллах и высота нижней границы облаков в метрах; квадратными скобками обозначены формы облаков: Ci - перистые, Cs - перисто-слоистые, Cc - перисто-кучевые, Ac - высококучевые, As - высокослоистые, Sc - слоисто-кучевые, Ns - слоисто-дождевые, Cu - кучевые, Cb - кучево-дождевые. Подробнее классификацию облаков см. в Атласе облаков (PDF).
T - Температура воздуха - температура, измеренная на высоте 2 м над землей.
Td - Температура точки росы - температура, при понижении до которой содержащийся в воздухе водяной пар достигнет насыщения.
f - Относительная влажность воздуха - влажноcть воздуха, измеренная на высоте 2 м над землей.
Te - Эффективная температура - температура, которую ощущает одетый по сезону человек в тени. Характеристика душности погоды. При расчете учитывается влияние влажности воздуха и скорости ветра на теплоощущения человека.
Tes - Эффективная температура на солнце - температура, которую ощущает человек, с поправкой на солнечный нагрев. Характеристика знойности погоды. Зависит от высоты солнца над горизонтом, облачности и скорости ветра. Ночью, в пасмурную погоду, а также при ветре 12 м/с и более поправка равна нулю.
P - Атмосферное давление - приведенное к уровню моря атмосферное давление.
Po - Атмосферное давление - измеренное на уровне метеостанции атмосферное давление.
Tmin - Минимальная температура - минимум температуры воздуха на высоте 2 м над землей.
Tmax - Максимальная температура - максимум температуры воздуха на высоте 2 м над землей.
R - Количество осадков - Количество выпавших осадков за период времени, мм. При наведении курсора мыши на число - период времени, за который выпало указанное количество осадков.
R24 - Количество осадков - Количество выпавших осадков за 24 часа, мм.
S - Снежный покров - Высота снежного покрова, см. При наведении курсора мыши на число - состояние снежного покрова и степень покрытия местности в баллах.